{"data":{"norad_id":57904,"intl_designator":"2023-146P","name":"STARLINK-30466","alt_names":[],"object_type":"PAYLOAD","status":"ACTIVE","operator":null,"country":"US","launch_date":"2023-09-20","launch_site_code":"AFETR","launch_vehicle":null,"mission":null,"orbit_class":"UNKNOWN","rcs_meters":null,"size_class":null,"mass_kg":null,"dimensions":null,"purposes":["comms"],"wikipedia_slug":null,"has_3d_model":false,"image_url":null,"decayed_at":null,"tle_current":{"epoch":"2026-05-24T23:57:24.378048Z","epoch_age_seconds":85570,"freshness":"FRESH","line1":"1 57904U 23146P   26144.99819882  .00000791  00000+0  38278-4 0  9990","line2":"2 57904  43.0055 243.5132 0002390 268.2455  91.8123 15.27579769147666","mean_motion":15.27579769,"eccentricity":0.000239,"inclination_deg":43.0055,"raan_deg":243.5132,"arg_perigee_deg":268.2455,"mean_anomaly_deg":91.8123,"bstar":3.8278e-5,"rev_number":14766,"period_min":94.266762968632,"perigee_km":481.40996409457,"apogee_km":484.68961137911,"semimajor_km":6861.1867877368,"source":"CELESTRAK","updated_at":"2026-05-25T13:38:18.454537Z"}}}